2018-107A

Last updated on Jan. 21, 2019, 12:02 a.m. UTC

1 43867U 18107A   19020.54586001 -.00000137  00000-0  00000+0 0  9997
2 43867   0.1245 275.5286 0002395 349.8680 130.6816  1.00274250   314
UTC
Height (km)
Latitude
Longitude
Inclination
Orbital Period
UTC large
Height (km)
Speed (km/s)
/
Latitude / Longitude
Inclination (degrees)
Orbital Period (minutes)
Azimuth
Elevation
Range (km)
Doppler Factor
iOS Compass Heading
iOS Angle

Next 30 passes for location: Hong Kong

Rise time Rise Azimuth (degrees) Set time Set Azimuth (degrees) Duration Max altitude (degrees)

No matching passes for this satellites